Tracking 25370 objects as of 25-Jan-2022
HD Live streaming from Space Station
objects crossing your sky now

STARLINK-1956

Track STARLINK-1956 now!
10-day predictions
STARLINK-1956 is classified as:


NORAD ID: 47557
Int'l Code: 2021-009K
Perigee: 553.0 km
Apogee: 555.7 km
Inclination: 53.1 °
Period: 95.6 minutes
Semi major axis: 6925 km
RCS: Unknown
Launch date: February 4, 2021
Source: United States (US)
Launch site: AIR FORCE EASTERN TEST RANGE (AFETR)
aabbcc
Your satellite tracking list
Your tracking list is empty




NASA's NSSDC Master Catalog

Two Line Element Set (TLE):
1 47557U 21009K   22025.18608433  .00001608  00000-0  12687-3 0  9996
2 47557  53.0542 315.6094 0001959  59.3374 300.7808 15.06397019 54356
Source of the keplerian elements: AFSPC